DW7628 Weather Reports


Display with metric or nautical units.
time (UTC)temp
F
wind
direction
speed
MPH
gust
MPH
rain 1hr
in
rain 24hr
in
rain mn
in
humidity
%
barometer
mb
20260503221306 53 278 0.0 0.0 0.00 0.00 0.00 79 1018.7
20260503220827 53 278 0.0 0.0 0.00 0.00 0.00 77 1018.9
20260503220306 53 278 0.0 0.0 0.00 0.00 0.00 77 1018.9
20260503215806 53 278 0.0 0.0 0.00 0.00 0.00 77 1018.8
20260503215306 53 278 0.0 0.0 0.00 0.00 0.00 78 1018.6
20260503214806 54 278 0.0 0.0 0.00 0.00 0.00 77 1018.6
20260503213806 54 278 0.0 0.0 0.00 0.00 0.00 78 1018.7
20260503213306 54 278 0.0 0.0 0.00 0.00 0.00 78 1018.7
20260503212805 54 39 0.0 0.0 0.00 0.00 0.00 77 1018.6
20260503212306 54 39 0.0 0.0 0.00 0.00 0.00 77 1018.6
20260503211306 54 58 0.0 0.0 0.00 0.00 0.00 78 1018.5
20260503210806 54 288 0.0 0.0 0.00 0.00 0.00 78 1018.6
20260503210306 54 41 0.0 0.0 0.00 0.00 0.00 77 1018.6
20260503205307 54 41 0.0 0.0 0.00 0.00 0.00 77 1018.6
20260503204307 54 40 0.0 0.0 0.00 0.00 0.00 76 1018.5
20260503203305 55 40 0.0 0.0 0.00 0.00 0.00 76 1018.4
20260503202806 55 40 0.0 0.0 0.00 0.00 0.00 76 1018.3
20260503202305 55 40 0.0 0.0 0.00 0.00 0.00 76 1018.3
20260503201806 55 39 0.0 0.0 0.00 0.00 0.00 76 1018.3
20260503201305 55 39 0.0 0.0 0.00 0.00 0.00 76 1018.3
20260503200805 55 38 0.0 0.0 0.00 0.00 0.00 76 1018.2
20260503200306 55 35 0.0 0.0 0.00 0.00 0.00 76 1018.2
20260503195805 55 36 0.0 0.0 0.00 0.00 0.00 75 1018.3
20260503195306 55 87 0.0 0.0 0.00 0.00 0.00 76 1018.2
20260503194805 55 87 0.0 0.0 0.00 0.00 0.00 76 1018.2
20260503194306 55 82 0.0 0.0 0.00 0.00 0.00 76 1018.2
20260503193805 55 20 0.0 0.0 0.00 0.00 0.00 75 1018.1
20260503193306 55 44 0.0 0.0 0.00 0.00 0.00 75 1018.0
20260503192807 55 24 0.0 0.0 0.00 0.00 0.00 75 1018.0
20260503192306 55 42 0.0 0.0 0.00 0.00 0.00 75 1018.0
20260503190306 56 64 0.0 0.0 0.00 0.00 0.00 74 1017.9
20260503184806 56 158 0.0 0.0 0.00 0.00 0.00 73 1017.9
20260503183306 57 238 0.0 0.0 0.00 0.00 0.00 73 1017.7
20260503182306 57 223 0.0 0.0 0.00 0.00 0.00 72 1017.7
20260503180305 58 230 0.0 0.0 0.00 0.00 0.00 71 1017.6
20260503175806 58 231 0.0 0.0 0.00 0.00 0.00 71 1017.5
20260503175305 58 237 0.0 0.0 0.00 0.00 0.00 71 1017.5
20260503174805 58 223 0.0 0.0 0.00 0.00 0.00 70 1017.4
20260503174306 58 262 0.0 0.0 0.00 0.00 0.00 70 1017.4
20260503173805 59 166 0.0 0.0 0.00 0.00 0.00 70 1017.4
20260503173305 59 124 0.0 0.0 0.00 0.00 0.00 70 1017.3
20260503172305 59 228 0.0 0.0 0.00 0.00 0.00 70 1017.2
20260503171806 59 297 0.0 0.0 0.00 0.00 0.00 70 1017.2
20260503171306 59 247 0.0 0.0 0.00 0.00 0.00 70 1017.2
20260503170306 60 241 0.0 0.0 0.00 0.00 0.00 69 1017.1
20260503150805 68 176 0.0 0.0 0.00 0.00 0.00 52 1016.9
20260503150306 68 12 0.0 0.0 0.00 0.00 0.00 51 1016.9
20260503140306 69 192 0.0 0.0 0.00 0.00 0.00 38 1017.5
20260503131305 70 18 0.0 0.0 0.00 0.00 0.00 32 1017.9
20260503130806 71 243 0.0 0.0 0.00 0.00 0.00 32 1017.9
20260503130305 70 73 0.0 0.0 0.00 0.00 0.00 33 1018.0
20260503110806 65 48 0.0 0.0 0.00 0.00 0.00 33 1018.9
20260503110305 66 38 0.0 0.0 0.00 0.00 0.00 31 1019.0
20260503081305 59 113 0.0 0.0 0.00 0.00 0.00 62 1019.7
20260503080805 59 69 0.0 0.0 0.00 0.00 0.00 64 1019.7
20260503080304 59 38 0.0 0.0 0.00 0.00 0.00 65 1019.7
20260503072805 57 225 0.0 0.0 0.00 0.00 0.00 70 1019.8
20260503072305 57 148 0.0 0.0 0.00 0.00 0.00 71 1019.8
20260503071805 56 84 0.0 0.0 0.00 0.00 0.00 71 1019.9
20260503071304 56 68 0.0 0.0 0.00 0.00 0.00 71 1019.9
20260503070804 56 324 0.0 0.0 0.00 0.00 0.00 72 1019.9
20260503070305 56 39 0.0 0.0 0.00 0.00 0.00 71 1019.8
20260503060305 52 47 0.0 0.0 0.00 0.00 0.00 79 1019.9
20260503054804 51 6 0.0 0.0 0.00 0.00 0.00 81 1020.0
20260503054304 50 61 0.0 0.0 0.00 0.00 0.00 82 1019.9
20260503053805 50 66 0.0 0.0 0.00 0.00 0.00 82 1019.9
20260503053304 50 42 0.0 0.0 0.00 0.00 0.00 82 1019.8
20260503052804 50 139 0.0 0.0 0.00 0.00 0.00 83 1019.8
20260503052306 49 157 0.0 0.0 0.00 0.00 0.00 84 1019.8
20260503051805 49 157 0.0 0.0 0.00 0.00 0.00 84 1019.7
20260503051304 49 168 0.0 0.0 0.00 0.00 0.00 85 1019.7
20260503050805 49 230 0.0 0.0 0.00 0.00 0.00 85 1019.6
20260503050304 48 230 0.0 0.0 0.00 0.00 0.00 85 1019.6
20260503045805 48 230 0.0 0.0 0.00 0.00 0.00 85 1019.6
20260503045305 48 230 0.0 0.0 0.00 0.00 0.00 85 1019.6
20260503044804 48 230 0.0 0.0 0.00 0.00 0.00 85 1019.6
20260503044304 48 230 0.0 0.0 0.00 0.00 0.00 85 1019.6
20260503043804 48 230 0.0 0.0 0.00 0.00 0.00 85 1019.6
20260503043304 48 230 0.0 0.0 0.00 0.00 0.00 85 1019.5
20260503042804 48 230 0.0 0.0 0.00 0.00 0.00 85 1019.5
20260503042305 48 230 0.0 0.0 0.00 0.00 0.00 85 1019.4
20260503041805 48 230 0.0 0.0 0.00 0.00 0.00 85 1019.4
20260503041304 48 230 0.0 0.0 0.00 0.00 0.00 85 1019.4
20260503040804 48 230 0.0 0.0 0.00 0.00 0.00 85 1019.4
20260503035305 48 230 0.0 0.0 0.00 0.00 0.00 85 1019.4
20260503034804 48 230 0.0 0.0 0.00 0.00 0.00 85 1019.4
20260503034304 48 230 0.0 0.0 0.00 0.00 0.00 84 1019.4
20260503033805 48 230 0.0 0.0 0.00 0.00 0.00 84 1019.3
20260503032804 48 230 0.0 0.0 0.00 0.00 0.00 84 1019.3
20260503031804 48 230 0.0 0.0 0.00 0.00 0.00 84 1019.4
20260503030304 48 230 0.0 0.0 0.00 0.00 0.00 84 1019.4
20260503025804 48 230 0.0 0.0 0.00 0.00 0.00 84 1019.4
20260503025305 48 230 0.0 0.0 0.00 0.00 0.00 84 1019.4
20260503024804 49 230 0.0 0.0 0.00 0.00 0.00 84 1019.4
20260503023804 48 230 0.0 0.0 0.00 0.00 0.00 84 1019.4
20260503022804 49 230 0.0 0.0 0.00 0.00 0.00 83 1019.4
20260503022305 49 230 0.0 0.0 0.00 0.00 0.00 83 1019.5
20260503021804 49 230 0.0 0.0 0.00 0.00 0.00 83 1019.5
20260503020804 49 230 0.0 0.0 0.00 0.00 0.00 83 1019.4
20260503020304 49 230 0.0 0.0 0.00 0.00 0.00 83 1019.4
20260503015804 49 230 0.0 0.0 0.00 0.00 0.00 83 1019.5
20260503015305 49 230 0.0 0.0 0.00 0.00 0.00 83 1019.6
20260503014804 49 230 0.0 0.0 0.00 0.00 0.00 83 1019.6
20260503014304 49 230 0.0 0.0 0.00 0.00 0.00 83 1019.6
20260503012804 49 230 0.0 0.0 0.00 0.00 0.00 82 1019.6
20260503012305 49 230 0.0 0.0 0.00 0.00 0.00 81 1019.7
20260503011803 50 230 0.0 0.0 0.00 0.00 0.00 81 1019.7
20260503010305 50 222 0.0 0.0 0.00 0.00 0.00 80 1019.8
20260503005803 50 200 0.0 0.0 0.00 0.00 0.00 79 1019.9
20260503005304 50 271 0.0 0.0 0.00 0.00 0.00 79 1019.9
20260503004804 51 291 0.0 0.0 0.00 0.00 0.00 79 1019.9
20260503004304 51 292 0.0 0.0 0.00 0.00 0.00 79 1020.0
20260503003803 51 292 0.0 0.0 0.00 0.00 0.00 79 1020.0
20260503003304 51 291 0.0 0.0 0.00 0.00 0.00 79 1020.0
20260503002806 51 291 0.0 0.0 0.00 0.00 0.00 79 1020.0
20260503002307 51 300 0.0 0.0 0.00 0.00 0.00 79 1020.1
20260503001806 51 266 0.0 0.0 0.00 0.00 0.00 78 1020.2
20260503001306 51 282 0.0 0.0 0.00 0.00 0.00 78 1020.2
20260503000806 51 251 0.0 0.0 0.00 0.00 0.00 79 1020.3
20260503000307 51 242 0.0 0.0 0.00 0.00 0.00 78 1020.3
20260502235806 51 242 0.0 0.0 0.00 0.00 0.00 78 1020.3
20260502235306 51 242 0.0 0.0 0.00 0.00 0.00 78 1020.4
20260502234806 51 242 0.0 0.0 0.00 0.00 0.00 78 1020.4
20260502234307 51 245 0.0 0.0 0.00 0.00 0.00 78 1020.4
20260502233806 51 245 0.0 0.0 0.00 0.00 0.00 77 1020.4
20260502233307 51 245 0.0 0.0 0.00 0.00 0.00 77 1020.5
20260502232806 51 245 0.0 0.0 0.00 0.00 0.00 77 1020.6
20260502232306 51 245 0.0 0.0 0.00 0.00 0.00 77 1020.6
20260502231806 51 245 0.0 0.0 0.00 0.00 0.00 77 1020.7
20260502231306 51 245 0.0 0.0 0.00 0.00 0.00 77 1020.8
20260502230806 52 245 0.0 0.0 0.00 0.00 0.00 76 1020.7
20260502230306 52 245 0.0 0.0 0.00 0.00 0.00 76 1020.8
20260502225806 52 300 0.0 0.0 0.00 0.00 0.00 76 1020.9
20260502225307 52 249 0.0 0.0 0.00 0.00 0.00 76 1020.9
20260502224806 52 156 0.0 0.0 0.00 0.00 0.00 76 1020.9
20260502224306 52 137 0.0 0.0 0.00 0.00 0.00 76 1020.9
20260502223306 52 247 0.0 0.0 0.00 0.00 0.00 76 1020.9
20260502222806 52 294 0.0 0.0 0.00 0.00 0.00 75 1020.8
20260502222306 52 207 0.0 0.0 0.00 0.00 0.00 75 1020.9
20260502221806 52 189 0.0 0.0 0.00 0.00 0.00 75 1020.8